Starlink 3629

operational
NORAD ID: 51774 Int'l Des: 2022-017 Owner: SPXS Country: US Constellation: starlink
LEOCIRCULAR

About Starlink 3629

Description loading...

Live Position

Loading 3D Globe...

Upcoming Passes

Altitude History

Altitude vs Time

uPlot chart will show altitude changes over time

Two-Line Element Set

1 51774U 22017G 25351.32493180 .00006720 00000-0 43984-3 0 9998
2 51774 53.2173 348.8719 0001189 74.7538 285.3585 15.08846653210139
Epoch: Dec 17, 2025 • Age: 8 hours

Current Status

Altitude 539.7 km
Velocity 7.60 km/s
Sub-Earth Point 20.88°N, 39.37°E
Launch Date Feb 25, 2022
Age 3.8 years
Type internet

Technical Details

Classification Payload
Mass 297.00 kg
Dry Mass 275.00 kg
Total Mass 297.00 kg
Length 0.20 m
Diameter 2.80 m
Span 9.00 m
Shape Box + pan
Manufacturer SPXS
Bus Type Starlink
Phase Status In Orbit
Owner/State SPXS/US

Large Constellations

Loading constellations...